{"data":{"norad_id":68607,"epoch":"2026-05-25T04:00:03.998880Z","epoch_age_seconds":70501,"freshness":"FRESH","line1":"1 68607U 26073F   26145.16671295 -.01940225  00000+0 -30679-1 0  9990","line2":"2 68607  97.2847 344.6050 0002001  86.7437  93.6349 15.56881208  5986","mean_motion":15.56881208,"eccentricity":0.0002001,"inclination_deg":97.2847,"raan_deg":344.605,"arg_perigee_deg":86.7437,"mean_anomaly_deg":93.6349,"bstar":-0.030679,"rev_number":598,"period_min":92.492605897007,"perigee_km":395.33405415109,"apogee_km":398.04533979522,"semimajor_km":6774.8266969732,"source":"CELESTRAK","updated_at":"2026-05-25T13:38:21.967045Z"}}